Location: ?????????
(38.5999°N, 22.7695°E)
Time: 13:24:57
(UTC+00:00)

Cosmos 1814 Rocket - Pass Details

Date: 23 May 2024
Orbit: 743 x 784 km, 74.1° (Epoch: 13 June)

Event Time Altitude Azimuth Distance (km) Brightness Sun altitude
Rises 00:56:26 0° 343° (NNW) 3,222 7.7 -21.0°
Reaches altitude 10° 00:58:48 10° 345° (NNW) 2,300 6.9 -20.7°
Maximum altitude 01:04:02 73° 71° (ENE) 804 4.2 -20.1°
Drops below altitude 10° 01:09:16 10° 156° (SSE) 2,312 6.2 -19.4°
Enters shadow 01:09:35 - 156° (SSE) 2,432 6.3 -19.4°
